CZ-4 DEB, 26129

Orbit data source: Space-Track

CZ-4 DEB, 26129 is space debris in SSO originally from a launch on Thu, 14 Oct 1999 UTC launched from the Taiyaun Space Center, China (TSC). Debris objects in space refer to the collection of defunct objects orbiting the Earth. Examples of debris include non-operational satellites, rocket bodies, and fragments generated from explosions, collisions, or faulty payload assembly.

Loading next visibility...
Identifier
26129, 1999-057R
Orbit
SSO
Country
Flag of CNCN / PRC
Related business
Manufacturer
Unknown
Mission
Spacecraft
Bus & Motor
Unknown
Mass
Unknown
Launch date (UTC)
1999-10-14 (26 years ago)
Launch vehicle
Unknown
Launch site
Taiyaun Space Center, China (TSC)
Object type
Payload
Rocket body
Debris
Shape & HBR
Unknown shape, 0.1 m
Radar Cross Section
Medium (>0.1 m² and <1 m²)

Expand to show TLE details & history
Last TLE update: 10 hours ago

TLE from 10 hours ago
0 CZ-4 DEB
1 26129U 99057R   25289.13000159  .00000597  00000-0  44175-3 0  9990
2 26129  99.0121 127.6566 0438487  64.9459 299.6536 13.60764180265030
Epoch: 2025-10-16T03:07Z
TLE epoch observation values (Epoch: 2025-10-16T03:07:12.137Z)
Latitude
-0.00005°
Longitude
55.96189°
Altitude
886.047 km
Speed
7.484 km/s
True Right ascension
08h 30m 37s
True Declination
0° 00' 00"
Sunlit
Object was in daylight at epoch
Visualization orbit readout
Latitude
Unknown
Longitude
Unknown
Altitude
Unknown
Speed
Unknown
Apparent Right ascension
Unknown
Apparent Declination
Unknown
Sunlit
N/A
Visualization observer readout
Local Sidereal Time
07:49:39
Azimuth
Unknown
Elevation
Unknown
Doppler factor
Unknown
Orbital elements
Apogee altitude
1,355.005 km
Perigee altitude
705.317 km
Semi-major axis
7,408.298 km
Eccentricity
0.04385
Inclination
99.0121°
RAAN
127.6566°
Arg. of periapsis
64.9459°
True anomaly
295.17°
Mean anomaly
299.6536°
Eccentric anomaly
297.42358°
Mean motion
3.40381 °/min
Orbital period
105.76 mins
BSTAR
0.00044175
Loading maneuver chart data...
Computing Atmospheric mass density...

Documentation

Showing up to 5 results
|